Flag for Colombia Weather past 2 weeks in Bogota, Colombia

Now
59 °F

Passing clouds.


Feels Like: 58 °F
Forecast: 49 / 65 °F
Wind: 7 mph from Southeast

Location: Bogota / Eldorado

Current Time: Apr 26, 2015 at 7:49:27 PM

Latest Report: Apr 26, 2015 at 7:00 PM


Visibility: N/A

Pressure: 30.31 "Hg

Humidity: 72%

Dew point: 50 °F

Location of BogotaLocation

Historic Weather in Bogota — Graph

°F

Bogota temperature yesterday

Maximum temperature yesterday: 64 °F (at 3:00 PM)
Minimum temperature yesterday: 48 °F (at 3:00 AM)
Average temperature yesterday: 56 °F

Past Weeks' High & Low Weather Summary

 TemperatureHumidityPressure
High68 °F (Apr 14, 2:00 PM)100% (Apr 17, 2:00 PM)30.44 "Hg (Apr 17, 2:00 PM)
Low48 °F (Apr 22, 6:00 AM)46% (Apr 14, 2:00 PM)30.22 "Hg (Apr 15, 4:00 PM)
Average58 °F76%30.33 "Hg
* Reported Apr 11 7:00 PM — Apr 26 7:00 PM, Bogota, Weather by CustomWeather, © 2015

Note: Actual official high and low records may vary slightly from our data, if they occured in-between our weather recording intervals... More about our weather records

Advertising

Bogota weather history for previous 24 hours

 ConditionsComfort  
Time TempWeatherWind HumidityBarometerVisibility
7:00 PM
Sun, Apr 26
59 °FPassing clouds.7 mph72%30.31 "HgN/A
6:00 PM63 °FScattered clouds.9 mph64%30.29 "HgN/A
5:00 PM63 °FScattered showers. Scattered clouds.14 mph64%30.27 "HgN/A
4:00 PM66 °FScattered clouds.14 mph56%30.26 "HgN/A
3:00 PM64 °FScattered showers. Partly sunny.14 mph60%30.28 "HgN/A
2:00 PM64 °FScattered showers. Partly sunny.17 mph68%30.30 "HgN/A
1:00 PM64 °FScattered showers. Partly sunny.17 mph60%30.32 "HgN/A
12:00 PM64 °FScattered showers. Partly sunny.10 mph56%30.35 "HgN/A
11:00 AM64 °FPartly sunny.5 mph60%30.36 "HgN/A
10:00 AM61 °FScattered showers. Partly sunny.7 mph68%30.37 "HgN/A
9:00 AM59 °FScattered showers. Partly sunny.3 mph77%30.37 "HgN/A
8:00 AM55 °FScattered showers. Partly sunny.6 mphN/AN/AN/A
7:00 AM54 °FScattered showers. Partly sunny.5 mph88%30.33 "HgN/A
6:00 AM54 °FScattered showers. Broken clouds.5 mph88%30.32 "HgN/A
5:00 AM54 °FPassing clouds.7 mph88%30.31 "HgN/A
4:00 AM52 °FPassing clouds.2 mph94%30.30 "HgN/A
3:00 AM52 °FPassing clouds.7 mph94%30.30 "HgN/A
2:00 AM54 °FPassing clouds.2 mph88%30.31 "HgN/A
1:00 AM54 °FPassing clouds.5 mph82%30.33 "HgN/A
12:00 AM54 °FPassing clouds.5 mph82%30.34 "HgN/A
11:00 PM
Sat, Apr 25
55 °FPassing clouds.7 mph82%30.37 "HgN/A
10:00 PM57 °FPassing clouds.5 mph77%30.38 "HgN/A
9:00 PM57 °FPassing clouds.7 mph77%30.37 "HgN/A
8:00 PM57 °FPassing clouds.7 mph82%30.34 "HgN/A
7:00 PM57 °FPassing clouds.7 mph82%30.31 "HgN/A
Weather by CustomWeather, © 2015

See weather overviewHow to use our weather pages